Regional Weather Roundup
Issued by NWS Jackson, KY

Home | Current Version | Previous Version | Graphics & Text | Print | Product List | Glossary On
Versions: 1 2 3 4 5 6 7 8 9 10 11 12 13 14 15 16 17 18 19 20 21 22 23 24 25 26 27 28 29 30 31 32 33 34 35 36 37 38 39 40 41 42 43 44 45 46 47 48 49 50
000
ASUS43 KJKL 110405
RWRJKL

EAST KENTUCKY HOURLY WEATHER ROUNDUP
NATIONAL WEATHER SERVICE JACKSON KY
1200 AM EDT FRI JUL 11 2014

NOTE: "FAIR" INDICATES FEW OR NO CLOUDS BELOW 12,000 FEET WITH
NO SIGNIFICANT WEATHER AND/OR OBSTRUCTIONS TO VISIBILITY.

* THESE REPORTS ARE NOT UNDER NWS QUALITY CONTROL AND MAY NOT
  REPORT WEATHER SUCH AS PRECIPITATION AND FOG.

KYZ079-080-083-085-087-088-110-112-115-119-120-110500
...EASTERN KENTUCKY...

CITY           SKY/WX    TMP DP  RH WIND       PRES   REMARKS
JACKSON        CLEAR     72  60  66 CALM      30.16S
LONDON         PTCLDY    73  62  68 CALM      30.16R
SOMERSET*      CLEAR     70  61  73 CALM      30.15R
MONTICELLO*    PTCLDY    65  64  96 CALM      30.16R
WILLIAMSBURG*    N/A     68  66  94 CALM      30.16R
MIDDLESBORO*   PTCLDY    67  63  86 CALM      30.16R
HARLAN APT*    PTCLDY    64  63  94 MISG      30.17S
BLACK MTN*       N/A     61  57  88 N1          N/A
PIKEVILLE APT* CLEAR     72  63  73 NE5       30.17R
BIG SANDY*     CLEAR     69  64  84 CALM      30.16S
MOREHEAD APT*  MOCLDY    72  59  64 CALM      30.18R
$$

KYZ035-036-041-042-044-050-067-078-099-110500
...CENTRAL KENTUCKY...

CITY           SKY/WX    TMP DP  RH WIND       PRES   REMARKS
MT STERLING*   CLEAR     64  61  88 CALM      30.17S
FLEMING/MASON* CLEAR     69  60  72 NE3       30.17S
DANVILLE*      CLEAR     66  59  77 CALM      30.16S
RICHMOND*      CLEAR     70  61  73 CALM      30.15R
LEXINGTON      CLEAR     69  57  65 NE5       30.16R
FRANKFORT      CLEAR     66  58  75 N3        30.14S
$$

KYZ091>093-OHZ055-061-077-WVZ005-015-034-035-042-110500
...SOUTHERN OHIO/WEST VIRGINIA...

CITY           SKY/WX    TMP DP  RH WIND       PRES   REMARKS
COVINGTON      PTCLDY    72  54  53 NE7       30.16S
COLUMBUS       PTCLDY    70  56  61 N3        30.16R
DAYTON         CLEAR     67  54  63 NE3       30.19R
WILMINGTON     CLEAR     64  57  78 N3        30.17R
HUNTINGTON     CLOUDY    68  62  81 CALM      30.15R
CHARLESTON     PTCLDY    67  67 100 CALM      30.15R
PINEVILLE*     CLEAR     65  65 100 MISG      30.23S
BECKLEY        CLEAR     64  59  83 CALM      30.22R
BLUEFIELD      CLEAR     67  57  70 CALM      30.24R
$$

VAZ002-007-008-TNZ017-027-036-066-071-110500
...SOUTHWEST VIRGINIA/EAST TENNESSEE...

CITY           SKY/WX    TMP DP  RH WIND       PRES   REMARKS
WISE*          PTCLDY    68  55  64 CALM      30.23S
JONESVILLE*      N/A     66  66 100 CALM      30.18S
ABINGDON*      MOCLDY    68  64  87 SE3       30.19S
BRISTOL        CLOUDY    68  63  84 CALM      30.16R
KNOXVILLE      MOCLDY    69  67  93 E3        30.12R
OAK RIDGE      CLEAR     71  69  93 CALM      30.15R
CROSSVILLE     PTCLDY    67  63  87 CALM      30.19R
NASHVILLE      MOCLDY    77  64  64 N5        30.13R
$$

...KEY TO REMARKS...
VSB - VISIBILITY IN MILES
WCI - WIND CHILL INDEX
HX  - HEAT INDEX

$$



USA.gov is the U.S. government's official web portal to all federal, state and local government web resources and services.